Overview Statistics Trail Chart Weather Telemetry Raw packets
 

This is the latest recevied weather packets stored in our database for station/object SV4JYD-13. If no packets are shown the sender has not sent any weather packets the latest 10 day(s).

<< 23 24 25 26 27 28 29 >>
Time Temp. Humidity Pressure Rain* Wind** Luminosity Snow
1777477917 20.56° C 81% 1015 hPa 0 mm - - -
1777477017 21.11° C 71% 1015 hPa 0 mm - - -
1777476117 21.11° C 68% 1015 hPa 0 mm - - -
1777475216 22.22° C 81% 1015 hPa 0 mm - - -
1777474316 22.22° C 80% 1015 hPa 0 mm - - -
1777473416 22.22° C 59% 1015 hPa 0 mm - - -
1777472516 22.78° C 79% 1015 hPa 0 mm - - -
1777471615 22.22° C 79% 1016 hPa 0 mm - - -
1777470716 22.78° C 58% 1016 hPa 0 mm - - -
1777469815 22.22° C 56% 1016 hPa 0 mm - - -
1777468915 22.78° C 56% 1016 hPa 0 mm - - -
1777468015 22.78° C 57% 1016 hPa 0 mm - - -
1777467114 23.33° C 55% 1016 hPa 0 mm - - -
1777466214 23.33° C 56% 1016 hPa 0 mm - - -
1777465314 23.33° C 56% 1016 hPa 0 mm - - -
1777464413 23.33° C 78% 1016 hPa 0 mm - - -
1777463513 23.33° C 54% 1017 hPa 0 mm - - -
1777462613 22.78° C 57% 1017 hPa 0 mm - - -
1777461713 22.78° C 57% 1017 hPa 0 mm - - -
1777460812 22.78° C 56% 1017 hPa 0 mm - - -
1777459912 23.33° C 55% 1017 hPa 0 mm - - -
1777459012 22.78° C 55% 1017 hPa 0 mm - - -
1777458112 22.78° C 55% 1017 hPa 0 mm - - -
1777457211 23.33° C 10% - 0 mm - - -
1777456311 22.22° C 54% 1017 hPa 0 mm - - -

* Rain latest hour (hover to see other rain measurements)
** Current wind speed in m/s (hover to see current wind gust speed)